FW0958 Weather Reports


Display with metric or nautical units.
time (UTC)temp
F
wind
direction
speed
MPH
gust
MPH
rain 1hr
in
rain 24hr
in
rain mn
in
humidity
%
barometer
mb
20260904190658 84 315 0.0 0.0 0.00 0.00 0.00 49 1013.1
20260904190653 84 309 0.0 0.0 0.00 0.00 0.00 49 1013.1
20260904185652 84 339 0.0 0.0 0.00 0.00 0.00 49 1013.1
20260904185153 84 48 0.0 1.0 0.00 0.00 0.00 49 1013.0
20260904184654 83 304 0.0 8.0 0.00 0.00 0.00 52 1013.2
20260904184152 82 18 1.0 8.0 0.00 0.00 0.00 51 1013.2
20260904183658 82 336 4.0 9.0 0.00 0.00 0.00 51 1013.3
20260904183652 83 287 2.0 8.0 0.00 0.00 0.00 50 1013.2
20260904182652 82 261 3.0 10.0 0.00 0.00 0.00 52 1013.4
20260904182153 81 269 1.0 10.0 0.00 0.00 0.00 54 1013.4
20260904181652 80 53 0.0 5.0 0.00 0.00 0.00 54 1013.4
20260904181150 79 288 2.0 8.0 0.00 0.00 0.00 56 1013.5
20260904180656 79 332 2.0 7.0 0.00 0.00 0.00 58 1013.7
20260904180650 80 309 2.0 8.0 0.00 0.00 0.00 56 1013.5
20260904180309 79 262 2.0 6.0 0.00 0.00 0.00 61 1013.6
20260904175157 78 276 3.0 7.0 0.00 0.00 0.00 62 1013.6
20260904175150 79 359 2.0 6.0 0.00 0.00 0.00 60 1013.6
20260904174155 78 289 1.0 9.0 0.00 0.00 0.00 62 1013.7
20260904174150 78 299 3.0 9.0 0.00 0.00 0.00 63 1013.7
20260904173152 78 303 1.0 8.0 0.00 0.00 0.00 63 1013.8
20260904172649 78 304 1.0 8.0 0.00 0.00 0.00 63 1013.8
20260904172148 77 281 2.0 4.0 0.00 0.00 0.00 65 1013.9
20260904171648 76 284 2.0 4.0 0.00 0.00 0.00 68 1014.0
20260904171149 75 311 1.0 4.0 0.00 0.00 0.00 68 1013.8
20260904170654 74 278 1.0 5.0 0.00 0.00 0.00 70 1013.7
20260904170649 75 268 1.0 4.0 0.00 0.00 0.00 68 1013.9
20260904170148 74 282 1.0 5.0 0.00 0.00 0.00 69 1013.9
20260904165148 74 256 1.0 3.0 0.00 0.00 0.00 70 1013.8
20260904164655 73 261 1.0 3.0 0.00 0.00 0.00 74 1013.6
20260904164650 73 258 1.0 3.0 0.00 0.00 0.00 71 1013.7
20260904163646 73 305 1.0 4.0 0.00 0.00 0.00 73 1013.7
20260904163147 72 305 1.0 4.0 0.00 0.00 0.00 73 1013.5
20260904162646 71 301 1.0 4.0 0.00 0.00 0.00 74 1013.6
20260904162151 71 284 0.0 2.0 0.00 0.00 0.00 75 1013.6
20260904162147 72 293 0.0 4.0 0.00 0.00 0.00 76 1013.8
20260904161146 70 284 1.0 4.0 0.00 0.00 0.00 78 1013.6
20260904160648 69 284 0.0 4.0 0.00 0.00 0.00 77 1013.5
20260904160148 70 284 0.0 1.0 0.00 0.00 0.00 78 1013.5
20260904155648 70 285 0.0 1.0 0.00 0.00 0.00 79 1013.5
20260904155146 69 199 0.0 0.0 0.00 0.00 0.00 77 1013.3
20260904154644 69 198 0.0 0.0 0.00 0.00 0.00 76 1013.4
20260904154144 69 109 0.0 0.0 0.00 0.00 0.00 78 1013.3
20260904153645 68 107 0.0 0.0 0.00 0.00 0.00 79 1013.2
20260904153149 67 99 0.0 0.0 0.00 0.00 0.00 80 1013.3
20260904153144 68 118 0.0 0.0 0.00 0.00 0.00 80 1013.3
20260904152141 67 148 0.0 0.0 0.00 0.00 0.00 81 1013.2
20260904151641 67 150 0.0 0.0 0.00 0.00 0.00 82 1013.2
20260904151141 66 144 0.0 0.0 0.00 0.00 0.00 82 1013.2
20260904150641 66 122 0.0 0.0 0.00 0.00 0.00 83 1013.3
20260904150142 66 124 0.0 0.0 0.00 0.00 0.00 83 1013.3
20260904145641 66 129 0.0 0.0 0.00 0.00 0.00 84 1013.4
20260904145145 65 137 0.0 0.0 0.00 0.00 0.00 86 1013.3
20260904145140 65 166 0.0 0.0 0.00 0.00 0.00 85 1013.3
20260904144759 64 130 0.0 0.0 0.00 0.00 0.00 86 1013.3
20260904143638 64 129 0.0 0.0 0.00 0.00 0.00 87 1013.2
20260904143141 63 129 0.0 0.0 0.00 0.00 0.00 86 1013.2
20260904143136 64 129 0.0 0.0 0.00 0.00 0.00 87 1013.1
20260904142136 63 129 0.0 0.0 0.00 0.00 0.00 86 1013.1
20260904141642 63 129 0.0 0.0 0.00 0.00 0.00 86 1013.0
20260904141636 63 129 0.0 0.0 0.00 0.00 0.00 86 1013.0
20260904140640 63 129 0.0 0.0 0.00 0.00 0.00 86 1013.1
20260904140635 63 129 0.0 0.0 0.00 0.00 0.00 86 1013.0
20260904135637 63 129 0.0 0.0 0.00 0.00 0.00 86 1013.0
20260904135141 63 67 0.0 0.0 0.00 0.00 0.00 87 1013.0
20260904135137 63 129 0.0 0.0 0.00 0.00 0.00 87 1012.9
20260904134754 63 65 0.0 0.0 0.00 0.00 0.00 86 1012.8
20260904134254 63 65 0.0 0.0 0.00 0.00 0.00 86 1012.8
20260904133137 63 65 0.0 0.0 0.00 0.00 0.00 86 1012.7
20260904132636 63 59 0.0 0.0 0.00 0.00 0.00 86 1012.6
20260904132135 63 58 0.0 0.0 0.00 0.00 0.00 87 1012.7
20260904131637 63 58 0.0 0.0 0.00 0.00 0.00 87 1012.6
20260904131136 63 58 0.0 0.0 0.00 0.00 0.00 87 1012.7
20260904130635 63 58 0.0 0.0 0.00 0.00 0.00 87 1012.7
20260904130142 63 58 0.0 0.0 0.00 0.00 0.00 87 1012.6
20260904130136 63 58 0.0 0.0 0.00 0.00 0.00 87 1012.6
20260904125636 63 58 0.0 0.0 0.00 0.00 0.00 87 1012.6
20260904125135 63 58 0.0 0.0 0.00 0.00 0.00 87 1012.7
20260904124134 63 58 0.0 0.0 0.00 0.00 0.00 87 1012.5
20260904123633 63 58 0.0 0.0 0.00 0.00 0.00 87 1012.5
20260904123135 63 58 0.0 0.0 0.00 0.00 0.00 87 1012.5
20260904122633 63 58 0.0 0.0 0.00 0.00 0.00 87 1012.4
20260904122137 63 58 0.0 0.0 0.00 0.00 0.00 87 1012.5
20260904122132 63 58 0.0 0.0 0.00 0.00 0.00 87 1012.4
20260904121133 62 58 0.0 0.0 0.00 0.00 0.00 88 1012.4
20260904120632 62 58 0.0 0.0 0.00 0.00 0.00 88 1012.6
20260904120137 62 58 0.0 0.0 0.00 0.00 0.00 88 1012.5
20260904120132 62 58 0.0 0.0 0.00 0.00 0.00 88 1012.5
20260904115137 62 46 0.0 0.0 0.00 0.00 0.00 88 1012.6
20260904115133 62 58 0.0 0.0 0.00 0.00 0.00 88 1012.6
20260904114132 62 46 0.0 0.0 0.00 0.00 0.00 88 1012.7
20260904113632 62 46 0.0 0.0 0.00 0.00 0.00 89 1012.7
20260904113129 62 46 0.0 0.0 0.00 0.00 0.00 89 1012.5
20260904112635 62 39 0.0 0.0 0.00 0.00 0.00 88 1012.7
20260904112631 62 39 0.0 0.0 0.00 0.00 0.00 88 1012.7
20260904111638 62 342 0.0 0.0 0.00 0.00 0.00 88 1012.7
20260904111631 62 345 0.0 0.0 0.00 0.00 0.00 89 1012.7
20260904111129 62 342 0.0 0.0 0.00 0.00 0.00 89 1012.7
20260904110129 62 342 0.0 0.0 0.00 0.00 0.00 88 1012.6
20260904105635 62 339 0.0 0.0 0.00 0.00 0.00 89 1012.6
20260904105630 62 339 0.0 0.0 0.00 0.00 0.00 88 1012.7
20260904105130 62 339 0.0 0.0 0.00 0.00 0.00 89 1012.5
20260904104127 62 339 0.0 0.0 0.00 0.00 0.00 89 1012.7
20260904103627 62 339 0.0 0.0 0.00 0.00 0.00 89 1012.5
20260904103128 62 339 0.0 0.0 0.00 0.00 0.00 89 1012.5
20260904102627 62 339 0.0 0.0 0.00 0.00 0.00 89 1012.5
20260904102128 62 339 0.0 0.0 0.00 0.00 0.00 89 1012.5
20260904101628 62 339 0.0 0.0 0.00 0.00 0.00 89 1012.4
20260904101127 62 339 0.0 0.0 0.00 0.00 0.00 89 1012.3
20260904100628 61 339 0.0 0.0 0.00 0.00 0.00 89 1012.3
20260904100129 61 339 0.0 0.0 0.00 0.00 0.00 89 1012.2
20260904095627 62 339 0.0 0.0 0.00 0.00 0.00 89 1012.3
20260904095125 61 339 0.0 0.0 0.00 0.00 0.00 90 1012.3
20260904094625 61 339 0.0 0.0 0.00 0.00 0.00 89 1012.4
20260904094130 61 339 0.0 0.0 0.00 0.00 0.00 89 1012.3
20260904094125 61 339 0.0 0.0 0.00 0.00 0.00 90 1012.3
20260904093745 61 339 0.0 0.0 0.00 0.00 0.00 89 1012.3
20260904092625 61 339 0.0 0.0 0.00 0.00 0.00 89 1012.2
20260904092127 61 339 0.0 0.0 0.00 0.00 0.00 90 1012.2
20260904091626 61 339 0.0 0.0 0.00 0.00 0.00 89 1012.3
20260904091125 61 339 0.0 0.0 0.00 0.00 0.00 89 1012.3
20260904090625 61 339 0.0 0.0 0.00 0.00 0.00 89 1012.2
20260904090123 61 339 0.0 0.0 0.00 0.00 0.00 89 1012.3
20260904085624 61 339 0.0 0.0 0.00 0.00 0.00 89 1012.3
20260904085123 61 339 0.0 0.0 0.00 0.00 0.00 89 1012.4
20260904084624 61 339 0.0 0.0 0.00 0.00 0.00 88 1012.4
20260904084130 61 339 0.0 0.0 0.00 0.00 0.00 88 1012.5
20260904084124 61 339 0.0 0.0 0.00 0.00 0.00 88 1012.5
20260904083123 62 339 0.0 0.0 0.00 0.00 0.00 88 1012.5
20260904082623 62 339 0.0 0.0 0.00 0.00 0.00 88 1012.6
20260904082123 62 339 0.0 0.0 0.00 0.00 0.00 88 1012.6
20260904081623 62 339 0.0 0.0 0.00 0.00 0.00 88 1012.6
20260904081121 62 339 0.0 0.0 0.00 0.00 0.00 88 1012.7
20260904080622 62 339 0.0 0.0 0.00 0.00 0.00 88 1012.7
20260904080121 62 339 0.0 0.0 0.00 0.00 0.00 88 1012.8
20260904075621 63 339 0.0 0.0 0.00 0.00 0.00 87 1012.7
20260904075121 63 339 0.0 0.0 0.00 0.00 0.00 87 1012.7
20260904074621 63 339 0.0 0.0 0.00 0.00 0.00 87 1012.8
20260904074122 63 339 0.0 0.0 0.00 0.00 0.00 87 1012.8
20260904073621 63 339 0.0 0.0 0.00 0.00 0.00 87 1012.8
20260904073122 63 339 0.0 0.0 0.00 0.00 0.00 87 1012.8
20260904072625 63 339 0.0 0.0 0.00 0.00 0.00 87 1012.8
20260904072620 63 339 0.0 0.0 0.00 0.00 0.00 87 1012.8
20260904071620 63 339 0.0 0.0 0.00 0.00 0.00 87 1012.9
20260904071118 63 339 0.0 0.0 0.00 0.00 0.00 87 1012.9
20260904070617 64 339 0.0 0.0 0.00 0.00 0.00 87 1012.8
20260904070115 64 339 0.0 0.0 0.00 0.00 0.00 87 1012.7
20260904065614 63 339 0.0 0.0 0.00 0.00 0.00 87 1012.7
20260904065114 64 339 0.0 0.0 0.00 0.00 0.00 87 1012.7
20260904064615 64 339 0.0 0.0 0.00 0.00 0.00 87 1012.7
20260904064112 64 339 0.0 0.0 0.00 0.00 0.00 86 1012.7
20260904063613 64 339 0.0 0.0 0.00 0.00 0.00 87 1012.7
20260904063112 64 339 0.0 0.0 0.00 0.00 0.00 87 1012.6
20260904062613 64 339 0.0 0.0 0.00 0.00 0.00 87 1012.7
20260904062118 64 339 0.0 0.0 0.00 0.00 0.00 87 1012.7
20260904062112 64 339 0.0 0.0 0.00 0.00 0.00 87 1012.7
20260904061112 64 339 0.0 0.0 0.00 0.00 0.00 86 1012.8
20260904060618 64 339 0.0 0.0 0.00 0.00 0.00 86 1012.8
20260904060612 64 339 0.0 0.0 0.00 0.00 0.00 86 1012.8
20260904055613 64 339 0.0 0.0 0.00 0.00 0.00 86 1012.7
20260904055110 65 339 0.0 0.0 0.00 0.00 0.00 86 1012.7
20260904054610 65 339 0.0 0.0 0.00 0.00 0.00 86 1012.7
20260904054110 65 339 0.0 0.0 0.00 0.00 0.00 86 1012.7
20260904053615 65 339 0.0 0.0 0.00 0.00 0.00 86 1012.6
20260904053610 65 339 0.0 0.0 0.00 0.00 0.00 86 1012.8
20260904052609 65 339 0.0 0.0 0.00 0.00 0.00 85 1012.7
20260904052115 65 339 0.0 0.0 0.00 0.00 0.00 85 1012.8
20260904052111 65 339 0.0 0.0 0.00 0.00 0.00 85 1012.7
20260904051728 65 339 0.0 0.0 0.00 0.00 0.00 85 1012.6
20260904051228 65 339 0.0 0.0 0.00 0.00 0.00 85 1012.7
20260904050109 65 339 0.0 0.0 0.00 0.00 0.00 85 1012.8
20260904045608 65 339 0.0 0.0 0.00 0.00 0.00 84 1012.7
20260904045107 65 339 0.0 0.0 0.00 0.00 0.00 84 1012.6
20260904044606 66 339 0.0 0.0 0.00 0.00 0.00 84 1012.5
20260904044107 66 338 0.0 0.0 0.00 0.00 0.00 84 1012.5
20260904043606 66 338 0.0 0.0 0.00 0.00 0.00 84 1012.6
20260904043107 66 338 0.0 0.0 0.00 0.00 0.00 84 1012.6
20260904042605 66 337 0.0 0.0 0.00 0.00 0.00 83 1012.6
20260904042107 66 337 0.0 0.0 0.00 0.00 0.00 83 1012.6
20260904041605 66 337 0.0 0.0 0.00 0.00 0.00 83 1012.6
20260904041106 66 337 0.0 0.0 0.00 0.00 0.00 83 1012.6
20260904040609 67 336 0.0 0.0 0.00 0.00 0.00 82 1012.6
20260904040605 66 337 0.0 0.0 0.00 0.00 0.00 83 1012.6
20260904035605 67 336 0.0 0.0 0.00 0.00 0.00 82 1012.5
20260904035109 67 336 0.0 0.0 0.00 0.00 0.00 82 1012.5
20260904035104 67 336 0.0 0.0 0.00 0.00 0.00 82 1012.4
20260904034102 67 336 0.0 0.0 0.00 0.00 0.00 82 1012.4
20260904033603 67 336 0.0 2.0 0.00 0.00 0.00 82 1012.4
20260904033107 67 341 1.0 4.0 0.00 0.00 0.00 82 1012.3
20260904033102 67 336 1.0 4.0 0.00 0.00 0.00 82 1012.5
20260904032108 67 346 1.0 4.0 0.00 0.00 0.00 81 1012.2
20260904032103 67 347 1.0 4.0 0.00 0.00 0.00 82 1012.3
20260904031723 68 343 1.0 4.0 0.00 0.00 0.00 81 1012.2
20260904030601 68 341 0.0 4.0 0.00 0.00 0.00 81 1012.1
20260904025602 68 338 1.0 5.0 0.00 0.00 0.00 80 1012.0
20260904025102 68 22 1.0 4.0 0.00 0.00 0.00 80 1012.0
20260904024603 68 13 1.0 5.0 0.00 0.00 0.00 80 1011.9
20260904024102 68 14 1.0 5.0 0.00 0.00 0.00 79 1011.9
20260904023601 69 350 1.0 5.0 0.00 0.00 0.00 79 1011.9
20260904023103 69 354 1.0 5.0 0.00 0.00 0.00 78 1012.0
20260904022602 69 1 2.0 5.0 0.00 0.00 0.00 78 1011.9
20260904022102 69 334 2.0 6.0 0.00 0.00 0.00 77 1012.0
20260904021603 70 357 2.0 6.0 0.00 0.00 0.00 76 1012.0
20260904021101 70 12 1.0 4.0 0.00 0.00 0.00 76 1011.9
20260904020601 70 312 2.0 5.0 0.00 0.00 0.00 75 1012.0
20260904020107 71 323 2.0 7.0 0.00 0.00 0.00 73 1012.0
20260904015101 71 324 1.0 7.0 0.00 0.00 0.00 72 1012.1
20260904014602 72 6 1.0 6.0 0.00 0.00 0.00 71 1012.0
20260904014109 72 29 2.0 7.0 0.00 0.00 0.00 70 1012.1
20260904014103 72 320 2.0 6.0 0.00 0.00 0.00 71 1011.9
20260904013603 72 352 3.0 6.0 0.00 0.00 0.00 70 1012.1
20260904012605 73 297 3.0 8.0 0.00 0.00 0.00 69 1012.1
20260904012600 73 284 3.0 10.0 0.00 0.00 0.00 69 1012.1
20260904012219 73 5 3.0 10.0 0.00 0.00 0.00 68 1012.0
20260904011057 74 284 3.0 9.0 0.00 0.00 0.00 67 1012.1
20260904010557 74 334 3.0 9.0 0.00 0.00 0.00 67 1012.0
20260904010057 75 312 3.0 9.0 0.00 0.00 0.00 66 1012.1
20260904005718 76 289 2.0 8.0 0.00 0.00 0.00 65 1011.9
20260904005218 77 310 3.0 8.0 0.00 0.00 0.00 65 1012.1
20260904004557 76 280 3.0 8.0 0.00 0.00 0.00 65 1012.0
20260904004057 76 11 3.0 8.0 0.00 0.00 0.00 65 1012.0
20260904003556 76 332 3.0 8.0 0.00 0.00 0.00 64 1012.0
20260904002557 77 18 3.0 9.0 0.00 0.00 0.00 63 1012.0
20260904002057 77 316 4.0 9.0 0.00 0.00 0.00 63 1012.0
20260904001556 78 340 4.0 10.0 0.00 0.00 0.00 63 1012.0
20260904001057 78 356 4.0 10.0 0.00 0.00 0.00 62 1012.0
20260904000556 78 336 4.0 11.0 0.00 0.00 0.00 63 1012.0
20260904000055 78 288 4.0 11.0 0.00 0.00 0.00 61 1011.9
20260903235555 78 310 4.0 11.0 0.00 0.00 0.00 63 1012.0
20260903235102 78 325 5.0 12.0 0.00 0.00 0.00 62 1012.0
20260903235056 78 326 4.0 11.0 0.00 0.00 0.00 63 1012.0
20260903234716 80 259 4.0 11.0 0.00 0.00 0.00 62 1012.1
20260903234055 79 29 5.0 12.0 0.00 0.00 0.00 62 1012.0
20260903233053 80 23 3.0 11.0 0.00 0.00 0.00 61 1012.0
20260903232553 80 334 4.0 9.0 0.00 0.00 0.00 62 1012.1
20260903232053 80 334 4.0 10.0 0.00 0.00 0.00 62 1012.1
20260903231554 80 301 5.0 10.0 0.00 0.00 0.00 61 1012.1
20260903231053 80 44 5.0 10.0 0.00 0.00 0.00 61 1012.1
20260903230553 81 353 4.0 11.0 0.00 0.00 0.00 60 1012.3
20260903230053 81 288 4.0 11.0 0.00 0.00 0.00 60 1012.2
20260903225552 81 297 4.0 10.0 0.00 0.00 0.00 60 1012.2
20260903225053 81 315 4.0 10.0 0.00 0.00 0.00 59 1012.1
20260903224554 82 310 5.0 10.0 0.00 0.00 0.00 59 1012.2
20260903224052 81 345 5.0 10.0 0.00 0.00 0.00 60 1012.2
20260903223556 82 303 4.0 11.0 0.00 0.00 0.00 58 1012.3
20260903223552 82 235 4.0 9.0 0.00 0.00 0.00 60 1012.3
20260903223212 82 317 5.0 11.0 0.00 0.00 0.00 58 1012.4
20260903222052 83 56 5.0 11.0 0.00 0.00 0.00 56 1012.3
20260903221551 83 318 5.0 12.0 0.00 0.00 0.00 55 1012.5
20260903221052 83 320 5.0 12.0 0.00 0.00 0.00 53 1012.4
20260903220550 82 292 5.0 10.0 0.00 0.00 0.00 57 1012.4
20260903220056 83 280 6.0 12.0 0.00 0.00 0.00 54 1012.7
20260903220051 82 349 6.0 12.0 0.00 0.00 0.00 54 1012.6
20260903215049 83 300 5.0 12.0 0.00 0.00 0.00 55 1012.8
20260903214550 82 4 5.0 11.0 0.00 0.00 0.00 54 1012.7
20260903214049 83 5 5.0 16.0 0.00 0.00 0.00 54 1012.7
20260903213548 83 277 5.0 16.0 0.00 0.00 0.00 53 1012.7
20260903213049 84 299 4.0 13.0 0.00 0.00 0.00 55 1012.7
20260903212548 83 324 4.0 10.0 0.00 0.00 0.00 58 1012.7
20260903212049 84 283 5.0 12.0 0.00 0.00 0.00 58 1012.7
20260903211548 84 309 6.0 12.0 0.00 0.00 0.00 57 1012.7
20260903211055 84 342 5.0 12.0 0.00 0.00 0.00 57 1012.7
20260903211049 84 324 6.0 11.0 0.00 0.00 0.00 58 1012.6
20260903210550 84 294 5.0 11.0 0.00 0.00 0.00 58 1012.6
20260903210209 84 344 5.0 13.0 0.00 0.00 0.00 58 1012.7
20260903205050 84 304 5.0 13.0 0.00 0.00 0.00 57 1012.8
20260903204548 84 292 5.0 11.0 0.00 0.00 0.00 59 1012.7
20260903204048 85 16 5.0 11.0 0.00 0.00 0.00 57 1012.8
20260903203555 84 346 5.0 15.0 0.00 0.00 0.00 58 1012.8
20260903203549 84 355 6.0 14.0 0.00 0.00 0.00 59 1012.6
20260903203050 83 315 5.0 14.0 0.00 0.00 0.00 59 1012.7
20260903202049 83 342 5.0 15.0 0.00 0.00 0.00 59 1012.8
20260903201548 83 301 5.0 14.0 0.00 0.00 0.00 59 1012.7
20260903201049 83 315 6.0 15.0 0.00 0.00 0.00 58 1012.8
20260903200550 83 332 6.0 15.0 0.00 0.00 0.00 57 1012.8
20260903200048 84 326 5.0 11.0 0.00 0.00 0.00 57 1012.8
20260903195549 84 319 5.0 11.0 0.00 0.00 0.00 56 1012.7
20260903195048 84 312 5.0 10.0 0.00 0.00 0.00 55 1012.8
20260903194549 84 327 4.0 11.0 0.00 0.00 0.00 55 1012.8
20260903194049 85 333 5.0 12.0 0.00 0.00 0.00 54 1012.9
20260903193548 84 318 6.0 12.0 0.00 0.00 0.00 55 1012.9
20260903193048 85 283 5.0 12.0 0.00 0.00 0.00 54 1013.0
20260903192549 85 353 4.0 11.0 0.00 0.00 0.00 54 1013.1
20260903192048 85 321 4.0 11.0 0.00 0.00 0.00 53 1013.1
20260903191549 85 281 5.0 11.0 0.00 0.00 0.00 53 1013.1
20260903191049 85 329 5.0 12.0 0.00 0.00 0.00 52 1013.2